Voltar ao catálogo

STARLINK-31649

AtivoComunicaçõesVLEO
NORAD 59390·PAYLOAD·🇺🇸 United States

Lançado Apr 2, 2024 de Vandenberg Space Force Base

Loading…

Próximas Passagens (próximas 24 horas)

TLE

AtualizadoSource: CelesTrak SupGP

Época: Sep 15, 2026, 02:48 UTC

1 59390C 24062S   26258.11715278 -.00001724  00000+0 -50881-4 0  2584
2 59390  53.1570  92.7294 0001055  80.6668  32.6749 15.34424670    15

Acompanhe STARLINK-31649 em tempo real com AllMySat

Download on the App Store